Roswell, NM

8:11 AM MDT on August 20, 2017 (GMT -0600)
Roswell Industrial

Weather History for KROW - July, 2014

Change the Weather History Date:

Wednesday, July 23, 2014

  Actual Average Record
Temperature  
Mean Temperature 86 °F 80 °F  
Max Temperature 98 °F 93 °F 106 °F (1963)
Min Temperature 73 °F 67 °F 58 °F (1894)
Degree Days  
Heating Degree Days 0 0  
Month to date heating degree days 0 0  
Since 1 June heating degree days 0 1  
Since 1 July heating degree days 0 0  
Cooling Degree Days 21 15  
Month to date cooling degree days 366 357  
Year to date cooling degree days 1100 979  
Since 1 June cooling degree days 846 754  
Growing Degree Days 35 (Base 50)    
Moisture  
Dew Point 57 °F    
Average Humidity 43    
Maximum Humidity 68    
Minimum Humidity 18    
Precipitation  
Precipitation 0.00 in 0.07 in 1.38 in (1905)
Month to date precipitation 0.65 1.59  
Year to date precipitation 6.94 6.49  
Sea Level Pressure  
Sea Level Pressure 30.00 in    
Wind  
Wind Speed 5 mph (ESE)    
Max Wind Speed 16 mph    
Max Gust Speed 25 mph    
Visibility 10 miles    
Events      
T = Trace of Precipitation, MM = Missing Value Source: NWS Daily Summary

Daily Weather History Graph

Daily Weather History Graph

Search for Another Location

Airport or City:

Trip Planner

Search our weather history database for the weather conditions in past years. The results will help you decide how hot, cold, wet, or windy it might be!

Date:

Astronomy

Jul. 23, 2014 Rise Set
Actual Time 6:04 AM MDT 8:04 PM MDT
Civil Twilight 5:37 AM MDT 8:31 PM MDT
Nautical Twilight 5:03 AM MDT 9:05 PM MDT
Astronomical Twilight 4:27 AM MDT 9:41 PM MDT
Moon 3:24 AM MDT (7/23) 5:35 PM MDT (7/23)
Length of Visible Light 14h 54m
Length of Day
13h 59m
Waning Crescent, 9% of the Moon is Illuminated
Jul 23
Waning Crescent
Jul 26
New
Aug 3
First Quarter
Aug 10
Full
Aug 17
Last Quarter

Hourly Weather History & Observations

Time (MDT) Temp. Heat Index Dew Point Humidity Pressure Visibility Wind Dir Wind Speed Gust Speed Precip Events Conditions
12:51 AM 82.0 °F 82.4 °F 60.1 °F 47% 30.00 in 10.0 mi Calm Calm - N/A   Partly Cloudy
1:51 AM 82.0 °F 82.4 °F 60.1 °F 47% 30.00 in 10.0 mi East 3.5 mph - N/A   Overcast
2:51 AM 79.0 °F - 61.0 °F 54% 29.99 in 10.0 mi WNW 4.6 mph - N/A   Mostly Cloudy
3:51 AM 77.0 °F - 63.0 °F 62% 30.00 in 10.0 mi North 3.5 mph - N/A   Scattered Clouds
4:51 AM 75.0 °F - 63.0 °F 66% 30.01 in 10.0 mi NE 3.5 mph - N/A   Partly Cloudy
5:51 AM 73.9 °F - 62.1 °F 66% 30.03 in 9.0 mi Calm Calm - N/A   Partly Cloudy
6:51 AM 75.0 °F - 62.1 °F 64% 30.04 in 10.0 mi Calm Calm - N/A   Scattered Clouds
7:51 AM 78.1 °F - 61.0 °F 56% 30.06 in 10.0 mi Calm Calm - N/A   Clear
8:51 AM 82.0 °F 82.7 °F 61.0 °F 49% 30.06 in 10.0 mi Calm Calm - N/A   Clear
9:51 AM 86.0 °F 86.8 °F 63.0 °F 46% 30.06 in 10.0 mi Variable 3.5 mph - N/A   Clear
11:51 AM 90.0 °F 89.1 °F 59.0 °F 35% 30.03 in 10.0 mi SSE 8.1 mph - N/A   Partly Cloudy
12:51 PM 91.0 °F 90.0 °F 57.9 °F 33% 30.03 in 10.0 mi North - - N/A   Clear
1:51 PM 93.9 °F 92.6 °F 57.0 °F 29% 30.01 in 10.0 mi Calm Calm - N/A   Clear
2:51 PM 95.0 °F 93.0 °F 55.0 °F 26% 29.99 in 10.0 mi South 8.1 mph 17.3 mph N/A   Clear
3:51 PM 96.1 °F - 51.1 °F 22% 29.96 in 10.0 mi Variable 6.9 mph - N/A   Partly Cloudy
4:51 PM 96.1 °F - 48.9 °F 20% 29.95 in 10.0 mi SSE 15.0 mph 18.4 mph N/A   Clear
5:51 PM 97.0 °F - 46.9 °F 18% 29.93 in 10.0 mi ESE 11.5 mph - N/A   Clear
6:51 PM 95.0 °F - 46.9 °F 19% 29.92 in 10.0 mi SE 9.2 mph - N/A   Clear
7:51 PM 90.0 °F - 50.0 °F 25% 29.93 in 10.0 mi ESE 6.9 mph - N/A   Clear
9:51 PM 82.9 °F - 51.1 °F 33% 29.97 in 10.0 mi ESE 6.9 mph - N/A   Clear
10:51 PM 80.1 °F 79.9 °F 53.1 °F 39% 29.98 in 10.0 mi ESE 6.9 mph - N/A   Clear
11:51 PM 80.1 °F 80.0 °F 54.0 °F 40% 29.99 in 10.0 mi SE 6.9 mph - N/A   Clear